Location: Arboucave
(43.6130°N, 0.4343°W)
Time: 05:37:11
(UTC+00:00)

COSMO-SKYMED 1 - Pass Details

Date: 17 November 2025
Orbit: 579 x 581 km, 97.9° (Epoch: 04 December)

Event Time Altitude Azimuth Distance (km) Brightness Sun altitude
Exits shadow 17:20:48 - 51° (NE) 1,948 4.5 -8.6°
Reaches altitude 10° 17:20:59 10° 53° (NE) 1,901 4.5 -8.6°
Maximum altitude 17:23:33 16° 92° (E) 1,543 4.0 -9.0°
Drops below altitude 10° 17:26:07 10° 131° (SE) 1,891 4.7 -9.5°
Sets 17:28:59 0° 153° (SSE) 2,784 5.8 -10.0°
